FW4831 Weather Reports


time (UTC)temp
C
wind
direction
speed
KPH
gust
KPH
rain 1hr
cm
rain 24hr
cm
rain mn
cm
humidity
%
barometer
mb
20260505083810 19 327 6.4 17.7 0.00 0.00 0.00 68 1005.1
20260505083311 19 314 8.0 19.3 0.00 0.00 0.00 67 1005.1
20260505082809 19 358 6.4 19.3 0.00 0.00 0.00 67 1005.3
20260505082632 19 317 9.7 20.9 0.00 0.00 0.00 67 1005.3
20260505081810 19 4 6.4 20.9 0.00 0.00 0.00 66 1005.4
20260505081311 19 312 8.0 22.5 0.00 0.00 0.00 66 1005.6
20260505080811 19 86 9.7 22.5 0.00 0.00 0.00 67 1005.5
20260505080311 19 354 6.4 17.7 0.00 0.00 0.00 67 1005.7
20260505075810 19 330 3.2 11.3 0.00 0.00 0.00 66 1005.7
20260505075311 19 0 6.4 11.3 0.00 0.00 0.00 66 1005.7
20260505074811 19 0 1.6 16.1 0.00 0.00 0.00 66 1005.9
20260505074628 18 333 4.8 16.1 0.00 0.00 0.00 67 1005.9
20260505073810 18 1 6.4 14.5 0.00 0.00 0.00 66 1006.1
20260505073310 19 353 4.8 16.1 0.00 0.00 0.00 66 1006.1
20260505072810 19 338 6.4 17.7 0.00 0.00 0.00 66 1006.0
20260505072310 18 331 8.0 17.7 0.00 0.00 0.00 66 1006.0
20260505071811 18 343 4.8 16.1 0.00 0.00 0.00 67 1006.1
20260505071453 18 336 8.0 16.1 0.00 0.00 0.00 65 1006.2
20260505071415 18 344 3.2 16.1 0.00 0.00 0.00 65 1006.0
20260505070310 18 324 3.2 14.5 0.00 0.00 0.00 65 1006.3
20260505065811 18 350 6.4 14.5 0.00 0.00 0.00 65 1006.2
20260505065458 18 292 3.2 9.7 0.00 0.00 0.00 65 1006.4
20260505065418 18 347 3.2 9.7 0.00 0.00 0.00 65 1006.3
20260505064310 18 241 1.6 4.8 0.00 0.00 0.00 65 1006.5
20260505063810 18 290 0.0 6.4 0.00 0.00 0.00 64 1006.6
20260505063309 19 306 1.6 6.4 0.00 0.00 0.00 64 1006.7
20260505062813 19 312 3.2 9.7 0.00 0.00 0.00 64 1006.8
20260505062310 19 324 4.8 9.7 0.00 0.00 0.00 64 1006.7
20260505061810 19 307 3.2 8.0 0.00 0.00 0.00 64 1006.8
20260505061309 19 334 3.2 6.4 0.00 0.00 0.00 64 1007.0
20260505060811 19 279 3.2 8.0 0.00 0.00 0.00 64 1007.2
20260505060323 19 344 1.6 8.0 0.00 0.00 0.00 64 1007.3
20260505055810 19 317 1.6 8.0 0.00 0.00 0.00 64 1007.4
20260505055309 19 299 3.2 8.0 0.00 0.00 0.00 64 1007.3
20260505054812 19 245 1.6 4.8 0.00 0.00 0.00 64 1007.4
20260505054309 19 168 0.0 4.8 0.00 0.00 0.00 64 1007.5
20260505053809 19 305 1.6 8.0 0.00 0.00 0.00 63 1007.6
20260505053316 19 289 1.6 8.0 0.00 0.00 0.00 63 1007.6
20260505053002 20 292 0.0 8.0 0.00 0.00 0.00 62 1007.6
20260505052915 20 305 1.6 8.0 0.00 0.00 0.00 62 1007.7
20260505052138 20 251 4.8 8.0 0.00 0.00 0.00 62 1007.7
20260505051310 20 276 1.6 8.0 0.00 0.00 0.00 62 1007.7
20260505050811 20 358 1.6 8.0 0.00 0.00 0.00 62 1007.6
20260505050309 20 348 1.6 4.8 0.00 0.00 0.00 62 1007.6
20260505041310 20 149 0.0 4.8 0.00 0.00 0.00 60 1007.9
20260505040810 20 199 1.6 6.4 0.00 0.00 0.00 60 1007.9
20260505040306 20 206 3.2 6.4 0.00 0.00 0.00 59 1007.9
20260505035804 20 221 3.2 4.8 0.00 0.00 0.00 60 1007.9
20260505035624 21 206 0.0 6.4 0.00 0.00 0.00 59 1008.1
20260505034801 21 248 3.2 6.4 0.00 0.00 0.00 59 1007.8
20260505034302 21 258 1.6 4.8 0.00 0.00 0.00 59 1007.9
20260505033800 21 247 0.0 4.8 0.00 0.00 0.00 59 1007.8
20260505033300 21 312 3.2 4.8 0.00 0.00 0.00 59 1007.9
20260505032758 21 309 3.2 4.8 0.00 0.00 0.00 59 1007.8
20260505032442 21 321 3.2 8.0 0.00 0.00 0.00 58 1008.1
20260505032400 21 268 0.0 4.8 0.00 0.00 0.00 59 1007.9
20260505031254 21 266 3.2 8.0 0.00 0.00 0.00 59 1007.9
20260505030753 21 302 1.6 6.4 0.00 0.00 0.00 59 1007.8
20260505030253 21 303 3.2 6.4 0.00 0.00 0.00 59 1007.7
20260505025750 21 3 3.2 9.7 0.00 0.00 0.00 59 1007.7
20260505025249 21 316 4.8 9.7 0.00 0.00 0.00 59 1007.5
20260505024751 21 336 4.8 8.0 0.00 0.00 0.00 58 1007.6
20260505024248 21 353 4.8 9.7 0.00 0.00 0.00 59 1007.6
20260505023748 21 333 3.2 9.7 0.00 0.00 0.00 58 1007.5
20260505023248 21 317 4.8 9.7 0.00 0.00 0.00 58 1007.5
20260505022746 21 326 4.8 9.7 0.00 0.00 0.00 58 1007.3
20260505022613 21 0 4.8 19.3 0.00 0.00 0.00 58 1007.4
20260505021744 21 353 6.4 19.3 0.00 0.00 0.00 57 1007.3
20260505021242 21 324 6.4 19.3 0.00 0.00 0.00 57 1007.2
20260505020743 21 0 6.4 11.3 0.00 0.00 0.00 59 1007.2
20260505020603 21 1 6.4 16.1 0.00 0.00 0.00 58 1007.0
20260505015740 21 27 6.4 16.1 0.00 0.00 0.00 57 1007.0
20260505015239 21 348 4.8 8.0 0.00 0.00 0.00 57 1007.0
20260505014739 21 348 4.8 9.7 0.00 0.00 0.00 57 1006.9
20260505014604 22 358 4.8 11.3 0.00 0.00 0.00 57 1006.9
20260505014100 22 27 4.8 11.3 0.00 0.00 0.00 57 1006.6
20260505013234 22 8 6.4 11.3 0.00 0.00 0.00 58 1006.7
20260505013116 22 17 4.8 9.7 0.00 0.00 0.00 58 1006.7
20260505012231 22 358 4.8 9.7 0.00 0.00 0.00 57 1006.7
20260505012051 22 358 6.4 9.7 0.00 0.00 0.00 56 1006.6
20260505011230 22 320 3.2 8.0 0.00 0.00 0.00 57 1006.6
20260505010731 22 338 3.2 8.0 0.00 0.00 0.00 56 1006.5
20260505010233 22 1 1.6 8.0 0.00 0.00 0.00 54 1006.3
20260505005727 22 309 3.2 6.4 0.00 0.00 0.00 54 1006.3
20260505005223 23 323 3.2 8.0 0.00 0.00 0.00 54 1006.3
20260505004723 23 348 3.2 8.0 0.00 0.00 0.00 54 1006.4
20260505004221 23 337 3.2 8.0 0.00 0.00 0.00 53 1006.4
20260505004039 23 1 3.2 9.7 0.00 0.00 0.00 53 1006.5
20260505003537 23 313 3.2 16.1 0.00 0.00 0.00 53 1006.4
20260505002714 23 69 4.8 16.1 0.00 0.00 0.00 53 1006.4
20260505002214 23 25 3.2 8.0 0.00 0.00 0.00 52 1006.5
20260505001713 23 18 4.8 11.3 0.00 0.00 0.00 52 1006.5
20260505001213 23 16 4.8 11.3 0.00 0.00 0.00 52 1006.6
20260505000711 23 11 4.8 14.5 0.00 0.00 0.00 51 1006.5
20260505000211 24 324 6.4 14.5 0.00 0.00 0.00 50 1006.6
20260504235708 24 307 6.4 11.3 0.00 0.00 0.00 50 1006.5
20260504235208 24 333 6.4 14.5 0.00 0.00 0.00 50 1006.5
20260504234708 24 310 8.0 14.5 0.00 0.00 0.00 49 1006.5
20260504234209 24 0 6.4 11.3 0.00 0.00 0.00 49 1006.6
20260504234037 24 334 8.0 22.5 0.00 0.00 0.00 48 1006.7
20260504233209 24 314 9.7 22.5 0.00 0.00 0.00 49 1006.7
20260504232711 25 1 9.7 22.5 0.00 0.00 0.00 48 1006.8
20260504232210 25 354 8.0 19.3 0.00 0.00 0.00 48 1006.8
20260504231709 25 0 6.4 16.1 0.00 0.00 0.00 49 1006.9
20260504231212 25 333 6.4 16.1 0.00 0.00 0.00 49 1006.9
20260504230708 25 302 6.4 16.1 0.00 0.00 0.00 47 1007.0
20260504230210 25 327 6.4 27.4 0.00 0.00 0.00 47 1007.0
20260504225709 25 351 12.9 27.4 0.00 0.00 0.00 45 1007.0
20260504225211 25 343 11.3 24.1 0.00 0.00 0.00 46 1007.0
20260504224709 25 275 8.0 24.1 0.00 0.00 0.00 46 1007.0
20260504224531 25 334 11.3 24.1 0.00 0.00 0.00 45 1006.9
20260504223710 25 207 9.7 27.4 0.00 0.00 0.00 46 1006.9
20260504223209 26 0 9.7 27.4 0.00 0.00 0.00 45 1006.9
20260504223048 26 25 16.1 25.7 0.00 0.00 0.00 45 1006.9
20260504222209 26 117 9.7 30.6 0.00 0.00 0.00 45 1006.9
20260504221711 26 18 11.3 30.6 0.00 0.00 0.00 44 1006.9
20260504221210 26 307 12.9 27.4 0.00 0.00 0.00 44 1007.0
20260504220709 26 0 14.5 32.2 0.00 0.00 0.00 44 1006.9
20260504220210 26 334 16.1 32.2 0.00 0.00 0.00 43 1006.9
20260504215709 26 4 17.7 27.4 0.00 0.00 0.00 44 1007.0
20260504215208 26 336 11.3 27.4 0.00 0.00 0.00 44 1007.1
20260504215028 26 7 11.3 22.5 0.00 0.00 0.00 45 1007.1
20260504214208 26 90 9.7 29.0 0.00 0.00 0.00 44 1007.1
20260504214032 26 305 12.9 29.0 0.00 0.00 0.00 44 1007.1
20260504213211 26 0 9.7 32.2 0.00 0.00 0.00 44 1007.2
20260504213051 26 25 14.5 32.2 0.00 0.00 0.00 44 1007.1
20260504212211 26 6 9.7 25.7 0.00 0.00 0.00 44 1007.1
20260504211708 26 347 12.9 30.6 0.00 0.00 0.00 45 1007.2
20260504211209 26 0 12.9 30.6 0.00 0.00 0.00 44 1007.3
20260504210709 26 0 11.3 30.6 0.00 0.00 0.00 43 1007.3
20260504210208 26 338 14.5 30.6 0.00 0.00 0.00 44 1007.4
20260504205715 26 0 12.9 27.4 0.00 0.00 0.00 44 1007.5
20260504205209 26 8 12.9 30.6 0.00 0.00 0.00 44 1007.5
20260504204709 26 293 12.9 30.6 0.00 0.00 0.00 44 1007.5
20260504204209 26 0 12.9 27.4 0.00 0.00 0.00 44 1007.6
20260504204028 26 10 17.7 30.6 0.00 0.00 0.00 43 1007.7
20260504203208 26 343 16.1 30.6 0.00 0.00 0.00 43 1007.8
20260504202710 26 337 14.5 33.8 0.00 0.00 0.00 43 1007.8
20260504202209 26 358 14.5 33.8 0.00 0.00 0.00 43 1007.8
20260504201708 26 13 16.1 29.0 0.00 0.00 0.00 44 1007.9
20260504201210 26 6 9.7 30.6 0.00 0.00 0.00 43 1008.1
20260504200709 26 17 12.9 33.8 0.00 0.00 0.00 43 1008.2
20260504200209 26 338 17.7 33.8 0.00 0.00 0.00 43 1008.3
20260504195710 26 4 20.9 33.8 0.00 0.00 0.00 42 1008.3
20260504195209 26 0 12.9 27.4 0.00 0.00 0.00 43 1008.4
20260504194854 26 0 14.5 25.7 0.00 0.00 0.00 43 1008.6
20260504194817 26 319 14.5 27.4 0.00 0.00 0.00 42 1008.3
20260504193708 27 309 14.5 25.7 0.00 0.00 0.00 43 1008.6
20260504193211 27 326 9.7 27.4 0.00 0.00 0.00 42 1008.6
20260504192709 26 268 14.5 27.4 0.00 0.00 0.00 42 1008.5
20260504192210 26 357 11.3 27.4 0.00 0.00 0.00 43 1008.6
20260504191711 26 341 16.1 30.6 0.00 0.00 0.00 43 1008.6
20260504191209 26 330 16.1 32.2 0.00 0.00 0.00 44 1008.8
20260504190710 26 355 17.7 32.2 0.00 0.00 0.00 42 1008.7
20260504190211 26 334 12.9 30.6 0.00 0.00 0.00 43 1008.9
20260504185710 26 1 9.7 30.6 0.00 0.00 0.00 43 1008.9
20260504185210 26 337 17.7 29.0 0.00 0.00 0.00 42 1008.8
20260504184721 26 0 19.3 30.6 0.00 0.00 0.00 45 1009.0
20260504184715 26 357 12.9 30.6 0.00 0.00 0.00 44 1009.0
20260504184710 26 321 14.5 27.4 0.00 0.00 0.00 43 1009.0
20260504183210 26 1 16.1 25.7 0.00 0.00 0.00 44 1009.1
20260504182710 26 0 11.3 29.0 0.00 0.00 0.00 45 1009.1
20260504182208 26 1 12.9 29.0 0.00 0.00 0.00 44 1009.2
20260504181708 26 321 12.9 27.4 0.00 0.00 0.00 44 1009.2
20260504181210 26 347 11.3 27.4 0.00 0.00 0.00 43 1009.3
20260504180708 26 348 16.1 30.6 0.00 0.00 0.00 45 1009.2
20260504180208 26 329 17.7 33.8 0.00 0.00 0.00 43 1009.4
20260504175709 26 355 16.1 33.8 0.00 0.00 0.00 44 1009.6
20260504175204 25 333 16.1 33.8 0.00 0.00 0.00 43 1009.6
20260504174704 26 321 14.5 25.7 0.00 0.00 0.00 43 1009.8
20260504174204 26 4 11.3 24.1 0.00 0.00 0.00 44 1009.7
20260504173701 25 312 14.5 38.6 0.00 0.00 0.00 43 1009.9
20260504173204 25 330 12.9 38.6 0.00 0.00 0.00 45 1010.0
20260504173019 25 265 12.9 29.0 0.00 0.00 0.00 44 1010.0
20260504172201 25 0 16.1 32.2 0.00 0.00 0.00 43 1009.9
20260504171702 25 334 11.3 32.2 0.00 0.00 0.00 46 1010.1
20260504171201 25 292 9.7 25.7 0.00 0.00 0.00 46 1010.3
20260504170701 25 302 11.3 33.8 0.00 0.00 0.00 45 1010.3
20260504170202 25 357 14.5 33.8 0.00 0.00 0.00 44 1010.3
20260504160139 24 262 8.0 22.5 0.00 0.00 0.00 49 1011.0
20260504151130 23 321 9.7 20.9 0.00 0.00 0.00 52 1011.5
20260504150633 22 25 8.0 24.1 0.00 0.00 0.00 53 1011.5
20260504150130 22 93 11.3 24.1 0.00 0.00 0.00 52 1011.5
20260504140616 20 1 6.4 14.5 0.00 0.00 0.00 61 1012.0
20260504140116 20 343 3.2 17.7 0.00 0.00 0.00 65 1012.0
20260504130610 16 0 3.2 6.4 0.00 0.00 0.00 75 1011.7
20260504130109 16 0 1.6 4.8 0.00 0.00 0.00 76 1011.6
20260504120109 15 0 0.0 3.2 0.00 0.00 0.00 78 1011.5
20260504110611 15 358 0.0 3.2 0.00 0.00 0.00 75 1011.1
20260504110108 15 0 0.0 3.2 0.00 0.00 0.00 75 1011.1
20260504100610 16 0 1.6 4.8 0.00 0.00 0.00 72 1011.0
20260504100111 16 358 1.6 6.4 0.00 0.00 0.00 71 1011.1
20260504090107 16 329 4.8 9.7 0.00 0.00 0.00 72 1011.3